JRR123T EPKT-ESMS

Flight info

Callsign JRR123T
Flight time 1h 4m
Altitude 36000
Route SUDOL L619 ARMEX/N0435F360 L619 XIDNA DCT BABEN DCT KOLOB L617 ROE
Aircraft B738/M-SDGIRWY/S

Departure

Time 2026-04-30 19:50
Airport Katowice Wojciech Korfanty International Airport (EPKT)

Arrival

Time 2026-04-30 20:54
Airport Malmö Sturup Airport (ESMS)
Time Latitude Longitude Altitude Speed Heading
2026-04-30 19:18 50.47145 19.08817 998 ft 0 kts 180°
2026-04-30 19:19 50.47141 19.08817 998 ft 0 kts 180°
2026-04-30 19:40 50.47152 19.08817 998 ft 4 kts 181°
2026-04-30 19:40 50.47179 19.08818 1025 ft 4 kts 182°
2026-04-30 19:41 50.47206 19.08819 1025 ft 4 kts 175°
2026-04-30 19:41 50.47229 19.08810 1025 ft 4 kts 129°
2026-04-30 19:41 50.47233 19.08800 1025 ft 0 kts 91°
2026-04-30 19:45 50.47233 19.08806 1025 ft 2 kts 91°
2026-04-30 19:45 50.47232 19.08862 1025 ft 8 kts 91°
2026-04-30 19:46 50.47231 19.08986 1026 ft 14 kts 91°
2026-04-30 19:46 50.47230 19.09102 1027 ft 18 kts 91°
2026-04-30 19:46 50.47230 19.09319 1029 ft 22 kts 90°
2026-04-30 19:46 50.47229 19.09557 1031 ft 22 kts 90°
2026-04-30 19:47 50.47229 19.09791 1032 ft 21 kts 90°
2026-04-30 19:47 50.47232 19.10009 1034 ft 12 kts 73°
2026-04-30 19:47 50.47280 19.10111 1035 ft 12 kts 52°
2026-04-30 19:47 50.47329 19.10209 1035 ft 11 kts 52°
2026-04-30 19:48 50.47377 19.10304 1036 ft 11 kts 51°
2026-04-30 19:48 50.47423 19.10396 1037 ft 11 kts 51°
2026-04-30 19:48 50.47486 19.10445 1037 ft 10 kts
2026-04-30 19:48 50.47561 19.10438 1037 ft 12 kts 342°
2026-04-30 19:49 50.47595 19.10326 1036 ft 13 kts 270°
2026-04-30 19:49 50.47600 19.08920 1026 ft 127 kts 270°
2026-04-30 19:49 50.47602 19.07283 1150 ft 163 kts 271°
2026-04-30 19:50 50.47602 19.05521 1881 ft 159 kts 272°
2026-04-30 19:50 50.47571 19.03772 2513 ft 164 kts 270°
2026-04-30 19:50 50.47497 19.01962 3100 ft 167 kts 270°
2026-04-30 19:50 50.47416 19.00132 3677 ft 169 kts 270°
2026-04-30 19:51 50.47330 18.98274 4248 ft 171 kts 270°
2026-04-30 19:51 50.47256 18.96400 4824 ft 173 kts 270°
2026-04-30 19:51 50.47180 18.94500 5403 ft 176 kts 270°
2026-04-30 19:51 50.47100 18.92529 5863 ft 189 kts 270°
2026-04-30 19:52 50.47293 18.90455 6254 ft 197 kts 296°
2026-04-30 19:52 50.47862 18.88450 6652 ft 206 kts 300°
2026-04-30 19:52 50.48508 18.86387 7000 ft 216 kts 301°
2026-04-30 19:52 50.49196 18.84213 7352 ft 228 kts 301°
2026-04-30 19:53 50.49923 18.81931 7724 ft 240 kts 301°
2026-04-30 19:53 50.50715 18.79523 8058 ft 258 kts 302°
2026-04-30 19:53 50.51601 18.76967 8448 ft 275 kts 303°
2026-04-30 19:53 50.52555 18.74254 8851 ft 292 kts 303°
2026-04-30 19:54 50.53575 18.71373 9248 ft 310 kts 303°
2026-04-30 19:54 50.54640 18.68382 9634 ft 326 kts 303°
2026-04-30 19:54 50.55740 18.65287 10129 ft 315 kts 303°
2026-04-30 19:54 50.56808 18.62354 10606 ft 298 kts 307°
2026-04-30 19:55 50.57971 18.59597 10765 ft 318 kts 309°
2026-04-30 19:55 50.59273 18.56648 11113 ft 334 kts 309°
2026-04-30 19:55 50.60604 18.53617 11760 ft 340 kts 309°
2026-04-30 19:55 50.61944 18.50527 12535 ft 342 kts 309°
2026-04-30 19:56 50.63283 18.47405 13328 ft 346 kts 309°
2026-04-30 19:56 50.64630 18.44241 14103 ft 350 kts 309°
2026-04-30 19:56 50.65988 18.41038 14824 ft 353 kts 309°
2026-04-30 19:56 50.67357 18.37800 15543 ft 357 kts 309°
2026-04-30 19:57 50.68753 18.34542 16250 ft 360 kts 313°
2026-04-30 19:57 50.70467 18.31718 16943 ft 354 kts 328°
2026-04-30 19:57 50.72521 18.29642 17679 ft 349 kts 339°
2026-04-30 19:57 50.74727 18.28020 18414 ft 351 kts 341°
2026-04-30 19:58 50.76965 18.26405 19064 ft 355 kts 341°
2026-04-30 19:58 50.79212 18.24767 19706 ft 358 kts 341°
2026-04-30 19:58 50.81477 18.23109 20372 ft 359 kts 342°
2026-04-30 19:58 50.83754 18.21439 21035 ft 361 kts 342°
2026-04-30 19:59 50.86037 18.19762 21663 ft 364 kts 342°
2026-04-30 19:59 50.88340 18.18071 22281 ft 366 kts 343°
2026-04-30 19:59 50.92996 18.14646 23498 ft 371 kts 343°
2026-04-30 20:00 50.95343 18.12917 24069 ft 373 kts 343°
2026-04-30 20:00 50.97708 18.11173 24553 ft 376 kts 343°
2026-04-30 20:00 51.00086 18.09417 25022 ft 378 kts 343°
2026-04-30 20:00 51.02480 18.07648 25472 ft 381 kts 344°
2026-04-30 20:01 51.07318 18.04067 26354 ft 386 kts 344°
2026-04-30 20:01 51.09754 18.02259 26784 ft 388 kts 344°
2026-04-30 20:01 51.12215 18.00432 27205 ft 391 kts 344°
2026-04-30 20:02 51.17176 17.96740 28019 ft 396 kts 344°
2026-04-30 20:02 51.19679 17.94875 28371 ft 399 kts 344°
2026-04-30 20:03 51.24758 17.91086 28697 ft 406 kts 344°
2026-04-30 20:03 51.27304 17.89178 29211 ft 405 kts 344°
2026-04-30 20:03 51.29855 17.87262 29672 ft 405 kts 345°
2026-04-30 20:03 51.32408 17.85345 30105 ft 406 kts 345°
2026-04-30 20:04 51.34960 17.83426 30572 ft 405 kts 345°
2026-04-30 20:04 51.37501 17.81511 31027 ft 402 kts 345°
2026-04-30 20:04 51.40023 17.79609 31487 ft 400 kts 345°
2026-04-30 20:05 51.45016 17.75841 32288 ft 398 kts 345°
2026-04-30 20:05 51.47519 17.73950 32708 ft 397 kts 345°
2026-04-30 20:05 51.52503 17.70179 33503 ft 395 kts 345°
2026-04-30 20:06 51.54983 17.68299 33893 ft 394 kts 344°
2026-04-30 20:06 51.57458 17.66420 34290 ft 393 kts 344°
2026-04-30 20:06 51.59954 17.64522 34641 ft 392 kts 344°
2026-04-30 20:06 51.62388 17.62671 34896 ft 393 kts 344°
2026-04-30 20:07 51.64864 17.60788 35116 ft 394 kts 343°
2026-04-30 20:07 51.67345 17.58897 35383 ft 394 kts 343°
2026-04-30 20:07 51.72305 17.55107 35899 ft 395 kts 343°
2026-04-30 20:08 51.74793 17.53203 36142 ft 396 kts 342°
2026-04-30 20:08 51.77281 17.51296 36385 ft 396 kts 342°
2026-04-30 20:08 51.79789 17.49374 36374 ft 401 kts 342°
2026-04-30 20:09 51.84833 17.45496 36382 ft 401 kts 342°
2026-04-30 20:09 51.92503 17.39585 36413 ft 414 kts 342°
2026-04-30 20:10 52.00413 17.33462 36386 ft 423 kts 341°
2026-04-30 20:11 52.08371 17.27264 36392 ft 423 kts 341°
2026-04-30 20:11 52.13681 17.23120 36385 ft 423 kts 341°
2026-04-30 20:12 52.21623 17.16902 36389 ft 422 kts 341°
2026-04-30 20:13 52.26907 17.12753 36391 ft 421 kts 341°
2026-04-30 20:13 52.32178 17.08603 36396 ft 420 kts 341°
2026-04-30 20:14 52.37412 17.04472 36398 ft 420 kts 341°
2026-04-30 20:14 52.42676 17.00307 36396 ft 420 kts 341°
2026-04-30 20:15 52.47935 16.96133 36399 ft 420 kts 341°
2026-04-30 20:15 52.53199 16.91945 36396 ft 420 kts 341°
2026-04-30 20:16 52.58494 16.87720 36398 ft 420 kts 341°
2026-04-30 20:16 52.63751 16.83515 36398 ft 420 kts 341°
2026-04-30 20:17 52.69017 16.79290 36397 ft 421 kts 341°
2026-04-30 20:17 52.74245 16.75085 36397 ft 421 kts 340°
2026-04-30 20:18 52.79509 16.70840 36397 ft 421 kts 340°
2026-04-30 20:18 52.84775 16.66581 36398 ft 422 kts 340°
2026-04-30 20:19 52.90048 16.62306 36398 ft 422 kts 340°
2026-04-30 20:19 52.95320 16.58019 36395 ft 422 kts 340°
2026-04-30 20:20 53.00597 16.53717 36405 ft 423 kts 340°
2026-04-30 20:20 53.05878 16.49399 36400 ft 423 kts 340°
2026-04-30 20:21 53.11155 16.45073 36405 ft 423 kts 340°
2026-04-30 20:21 53.16432 16.40735 36407 ft 423 kts 339°
2026-04-30 20:22 53.21710 16.36383 36402 ft 423 kts 339°
2026-04-30 20:22 53.26977 16.32029 36404 ft 423 kts 339°
2026-04-30 20:23 53.32247 16.27661 36411 ft 423 kts 339°
2026-04-30 20:23 53.37516 16.23282 36405 ft 423 kts 339°
2026-04-30 20:24 53.42782 16.18892 36410 ft 423 kts 339°
2026-04-30 20:24 53.48047 16.14492 36409 ft 423 kts 339°
2026-04-30 20:25 53.55936 16.07874 36412 ft 422 kts 339°
2026-04-30 20:26 53.63820 16.01233 36408 ft 422 kts 338°
2026-04-30 20:26 53.71702 15.94567 36409 ft 422 kts 338°
2026-04-30 20:27 53.82170 15.85669 36408 ft 422 kts 338°
2026-04-30 20:28 53.92664 15.76699 36411 ft 423 kts 337°
2026-04-30 20:30 54.05782 15.65414 36286 ft 425 kts 337°
2026-04-30 20:30 54.13689 15.58572 35436 ft 424 kts 337°
2026-04-30 20:31 54.21610 15.51690 34634 ft 427 kts 336°
2026-04-30 20:32 54.29566 15.44746 33761 ft 429 kts 336°
2026-04-30 20:32 54.34892 15.40081 33167 ft 431 kts 336°
2026-04-30 20:33 54.37564 15.37735 32871 ft 432 kts 336°
2026-04-30 20:33 54.42928 15.33016 31965 ft 433 kts 336°
2026-04-30 20:33 54.44690 15.31461 31603 ft 429 kts 336°
2026-04-30 20:34 54.49939 15.26820 30511 ft 420 kts 336°
2026-04-30 20:34 54.55074 15.22269 29273 ft 411 kts 336°
2026-04-30 20:35 54.57602 15.20024 28664 ft 406 kts 336°
2026-04-30 20:35 54.60101 15.17803 28073 ft 402 kts 336°
2026-04-30 20:35 54.65030 15.13413 26925 ft 395 kts 336°
2026-04-30 20:36 54.67462 15.11242 26369 ft 392 kts 336°
2026-04-30 20:36 54.69871 15.09090 25819 ft 388 kts 336°
2026-04-30 20:36 54.74630 15.04827 24765 ft 382 kts 337°
2026-04-30 20:37 54.76985 15.02715 24237 ft 380 kts 337°
2026-04-30 20:37 54.79319 15.00617 23691 ft 377 kts 337°
2026-04-30 20:37 54.81638 14.98531 23088 ft 374 kts 337°
2026-04-30 20:37 54.83944 14.96454 22497 ft 372 kts 337°
2026-04-30 20:38 54.86236 14.94387 21917 ft 370 kts 337°
2026-04-30 20:38 54.88507 14.92335 21351 ft 367 kts 337°
2026-04-30 20:38 54.90766 14.90293 20795 ft 365 kts 337°
2026-04-30 20:39 54.95243 14.86236 19786 ft 359 kts 337°
2026-04-30 20:39 54.97438 14.84242 19375 ft 354 kts 338°
2026-04-30 20:39 54.99605 14.82273 18971 ft 349 kts 338°
2026-04-30 20:40 55.03865 14.78394 18095 ft 342 kts 338°
2026-04-30 20:40 55.05815 14.75996 17619 ft 349 kts 320°
2026-04-30 20:40 55.07265 14.72565 17175 ft 357 kts 302°
2026-04-30 20:41 55.08974 14.64478 16331 ft 356 kts 294°
2026-04-30 20:41 55.09744 14.60378 15899 ft 354 kts 294°
2026-04-30 20:41 55.10507 14.56309 15480 ft 351 kts 294°
2026-04-30 20:41 55.11270 14.52279 15067 ft 349 kts 294°
2026-04-30 20:42 55.12037 14.48268 14659 ft 347 kts 294°
2026-04-30 20:42 55.12804 14.44287 14252 ft 345 kts 294°
2026-04-30 20:42 55.14329 14.36397 13364 ft 341 kts 294°
2026-04-30 20:43 55.15086 14.32478 12927 ft 339 kts 293°
2026-04-30 20:43 55.15838 14.28586 12496 ft 337 kts 293°
2026-04-30 20:43 55.16583 14.24721 12068 ft 335 kts 293°
2026-04-30 20:44 55.18058 14.17043 11233 ft 331 kts 292°
2026-04-30 20:44 55.18786 14.13243 10821 ft 329 kts 292°
2026-04-30 20:44 55.20228 14.05696 9978 ft 325 kts 292°
2026-04-30 20:45 55.21646 13.98240 9100 ft 321 kts 292°
2026-04-30 20:45 55.22349 13.94538 8662 ft 319 kts 292°
2026-04-30 20:45 55.23046 13.90859 8231 ft 318 kts 291°
2026-04-30 20:46 55.25113 13.79902 6996 ft 313 kts 291°
2026-04-30 20:46 55.25794 13.76280 6550 ft 312 kts 291°
2026-04-30 20:47 55.27147 13.69079 5710 ft 309 kts 290°
2026-04-30 20:47 55.27808 13.65550 5297 ft 308 kts 290°
2026-04-30 20:48 55.29134 13.58450 4376 ft 306 kts 290°
2026-04-30 20:48 55.29800 13.54881 3841 ft 309 kts 290°
2026-04-30 20:48 55.30465 13.51297 3316 ft 309 kts 290°
2026-04-30 20:48 55.31272 13.47915 3199 ft 293 kts 305°
2026-04-30 20:49 55.32614 13.45393 3065 ft 273 kts 323°
2026-04-30 20:49 55.34083 13.43475 2947 ft 254 kts 325°
2026-04-30 20:49 55.35517 13.41850 2799 ft 238 kts 340°
2026-04-30 20:50 55.38554 13.40736 2541 ft 210 kts 352°
2026-04-30 20:50 55.39945 13.40435 2506 ft 192 kts 353°
2026-04-30 20:50 55.41225 13.40175 2443 ft 183 kts 354°
2026-04-30 20:50 55.42457 13.39923 2218 ft 171 kts 353°
2026-04-30 20:51 55.43578 13.39692 2010 ft 154 kts 353°
2026-04-30 20:51 55.45544 13.39287 1632 ft 136 kts 353°
2026-04-30 20:51 55.46477 13.39094 1451 ft 135 kts 352°
2026-04-30 20:52 55.47408 13.38902 1262 ft 133 kts 352°
2026-04-30 20:52 55.48321 13.38714 1081 ft 132 kts 352°
2026-04-30 20:52 55.50186 13.38346 691 ft 136 kts 351°
2026-04-30 20:53 55.51127 13.38144 512 ft 136 kts 351°
2026-04-30 20:53 55.52079 13.37941 330 ft 138 kts 351°
2026-04-30 20:53 55.53014 13.37749 238 ft 125 kts 354°
2026-04-30 20:54 55.54056 13.37534 228 ft 55 kts 353°
2026-04-30 20:54 55.54398 13.37462 220 ft 47 kts 353°
2026-04-30 20:54 55.54701 13.37399 218 ft 35 kts 353°
2026-04-30 20:55 55.54775 13.37382 219 ft 3 kts 336°
2026-04-30 20:55 55.54776 13.37289 221 ft 12 kts 222°
2026-04-30 20:55 55.54712 13.37198 218 ft 12 kts 209°
2026-04-30 20:56 55.54559 13.37136 219 ft 11 kts 175°
2026-04-30 20:56 55.54484 13.37150 220 ft 11 kts 172°
2026-04-30 20:56 55.54338 13.37180 222 ft 10 kts 174°
2026-04-30 20:57 55.54269 13.37193 223 ft 9 kts 174°
2026-04-30 20:57 55.54214 13.37181 223 ft 8 kts 219°
2026-04-30 20:57 55.54192 13.37097 223 ft 7 kts 248°
2026-04-30 20:58 55.54173 13.36926 224 ft 7 kts 264°
2026-04-30 20:58 55.54168 13.36842 224 ft 7 kts 264°
2026-04-30 20:58 55.54161 13.36750 224 ft 7 kts 262°
2026-04-30 20:58 55.54157 13.36695 224 ft 2 kts 262°
2026-04-30 20:59 55.54187 13.36638 224 ft 5 kts 347°
2026-04-30 20:59 55.54210 13.36633 224 ft 2 kts 355°
2026-04-30 21:00 55.54223 13.36631 224 ft 0 kts 354°